This is the latest recevied weather packets stored in our database for station/object G4WLC-1. If no packets are shown the sender has not sent any weather packets the latest 10 day(s).
| Time | Temp. | Humidity | Pressure | Rain* | Wind** | Luminosity | Snow |
|---|---|---|---|---|---|---|---|
| 1777829289 | 15° C | 82% | 1009.1 hPa | 0 mm | - | - | - |
| 1777828989 | 15° C | 83% | 1009.3 hPa | 0 mm | - | - | - |
| 1777828689 | 15° C | 83% | 1009.3 hPa | 0 mm | - | - | - |
| 1777828389 | 15.56° C | 83% | 1009.2 hPa | 0 mm | - | - | - |
| 1777828089 | 15.56° C | 83% | 1009.2 hPa | 0 mm | - | - | - |
| 1777827789 | 15° C | 83% | 1009.2 hPa | 0 mm | - | - | - |
| 1777827489 | 15° C | 83% | 1009.3 hPa | 0 mm | - | - | - |
| 1777827189 | 15° C | 83% | 1009.3 hPa | 0 mm | - | - | - |
| 1777826889 | 15° C | 83% | 1009.2 hPa | 0 mm | - | - | - |
| 1777826589 | 15° C | 83% | 1009.3 hPa | 0 mm | - | - | - |
| 1777826289 | 15° C | 83% | 1009.3 hPa | 0 mm | - | - | - |
| 1777825989 | 15° C | 83% | 1009.3 hPa | 0 mm | - | - | - |
| 1777825689 | 15° C | 83% | 1009.3 hPa | 0 mm | - | - | - |
| 1777825389 | 15° C | 83% | 1009.4 hPa | 0 mm | - | - | - |
| 1777825089 | 15° C | 83% | 1009.3 hPa | 0 mm | - | - | - |
| 1777824789 | 15° C | 82% | 1009.3 hPa | 0 mm | - | - | - |
| 1777824489 | 15.56° C | 82% | 1009.3 hPa | 0 mm | - | - | - |
| 1777824189 | 15.56° C | 81% | 1009.3 hPa | 0 mm | - | - | - |
| 1777823889 | 16.11° C | 79% | 1009.3 hPa | 0 mm | - | - | - |
| 1777823589 | 16.11° C | 77% | 1009.3 hPa | 0 mm | - | - | - |
| 1777823289 | 16.67° C | 76% | 1009.3 hPa | 0 mm | - | - | - |
| 1777822989 | 16.67° C | 77% | 1009.1 hPa | 0 mm | - | - | - |
| 1777822689 | 16.67° C | 76% | 1009.2 hPa | 0 mm | - | - | - |
| 1777822389 | 16.11° C | 77% | 1009.3 hPa | 0 mm | - | - | - |
| 1777822089 | 16.11° C | 79% | 1009.3 hPa | 0 mm | - | - | - |
* Rain latest hour (hover to see other rain measurements)
** Current wind speed in m/s (hover to see current wind gust speed)